Location: ??????-???
(48.4261°N, 37.7652°E)
Time: 01:14:04
(UTC+00:00)

Daily predictions for brighter satellites

Satellite Brightness Start Highest point End
(mag) Time Altitude Azimuth Time Altitude Azimuth Time Altitude Azimuth
STARLINK-1335 3.2 00:00:16 10° WNW 00:03:23 69° NNE 00:06:30 10° ESE
STARLINK-1327 3.2 00:00:37 10° WNW 00:03:44 69° NNE 00:06:50 10° ESE
STARLINK-61 3.7 00:01:01 16° SW 00:03:58 58° SSE 00:07:50 10° ENE
STARLINK-1340 3.2 00:00:54 10° WNW 00:04:02 70° NNE 00:07:08 10° ESE
STARLINK-1356 3.2 00:01:17 10° WNW 00:04:25 70° NNE 00:07:31 10° ESE
STARLINK-1345 3.2 00:01:36 10° WNW 00:04:43 70° NNE 00:07:50 10° ESE
STARLINK-1355 3.2 00:01:57 10° WNW 00:05:05 71° NNE 00:08:12 10° ESE
STARLINK-1321 3.1 00:02:18 10° WNW 00:05:26 71° NNE 00:08:33 10° ESE
STARLINK-1358 3.1 00:02:41 10° WNW 00:05:48 71° NNE 00:08:56 10° ESE
STARLINK-1332 3.1 00:02:59 10° WNW 00:06:06 72° NNE 00:09:12 10° ESE
STARLINK-1348 3.1 00:03:18 10° WNW 00:06:26 72° NNE 00:09:33 10° ESE
COBE Rocket 4.3 00:01:25 10° SSE 00:06:28 71° ENE 00:11:39 10° N
STARLINK-1330 3.1 00:03:38 10° WNW 00:06:46 72° NNE 00:09:53 10° ESE
Cosmos 1076 Rocket 3.6 00:03:03 14° SSW 00:06:50 71° W 00:11:13 10° N
STARLINK-1363 3.1 00:03:58 10° WNW 00:07:06 73° NNE 00:10:13 10° ESE
STARLINK-1289 4.2 00:03:29 10° W 00:07:09 49° NNW 00:10:49 10° ENE
STARLINK-1337 3.1 00:04:21 10° WNW 00:07:29 73° NNE 00:10:36 10° ESE
STARLINK-1342 3.1 00:04:40 10° WNW 00:07:47 73° NNE 00:10:54 10° ESE
STARLINK-1308 3.6 00:04:30 14° SW 00:08:03 78° SSE 00:12:12 10° ENE
STARLINK-1364 3.1 00:05:01 10° WNW 00:08:08 74° NNE 00:11:15 10° ESE
STARLINK-1268 4.1 00:05:23 10° W 00:08:20 39° NNW 00:11:17 10° ENE
STARLINK-1376 3.1 00:05:20 10° WNW 00:08:28 74° NNE 00:11:35 10° ESE
STARLINK-1301 4.3 00:05:02 10° W 00:08:47 49° NNW 00:12:33 10° ENE
Cosmos 2151 3.7 00:04:38 10° S 00:08:48 53° E 00:13:01 10° NNE
STARLINK-1360 3.1 00:05:41 10° WNW 00:08:48 74° NNE 00:11:56 10° ESE
STARLINK-1361 3.1 00:06:02 10° WNW 00:09:09 75° NNE 00:12:16 10° ESE
STARLINK-54 4.5 00:06:51 14° SSW 00:09:22 30° SE 00:12:35 10° ENE
STARLINK-1367 3.1 00:06:17 10° WNW 00:09:27 76° NNE 00:12:36 10° ESE
STARLINK-1366 3.0 00:06:40 10° WNW 00:09:48 75° NNE 00:12:55 10° ESE
H-2A R/B 3.3 00:05:54 10° SE 00:10:09 47° ENE 00:14:30 10° N
Cosmos 2154 Rocket 4.3 00:05:04 13° SSW 00:10:34 56° WNW 00:16:42 10° N
STARLINK-1303 4.2 00:06:58 10° W 00:10:37 48° NNW 00:14:17 10° ENE
STARLINK-66 4.4 00:08:52 10° WNW 00:11:53 36° N 00:14:54 10° ENE
STARLINK-1316 4.2 00:10:33 10° W 00:13:31 39° N 00:16:29 10° ENE
STARLINK-1338 3.9 00:10:07 10° WNW 00:14:06 69° NNE 00:18:04 10° ESE
STARLINK-1312 4.3 00:10:28 10° W 00:14:07 47° NNW 00:17:47 10° ENE
STARLINK-1257 4.2 00:11:27 10° W 00:14:25 38° N 00:17:23 10° ENE
SL-16 R/B 3.4 00:10:23 12° SSW 00:15:09 30° W 00:20:30 10° NW
STARLINK-1256 4.2 00:12:26 10° W 00:15:22 38° N 00:18:20 10° ENE
GEOS 3 Rocket 3.9 00:10:34 10° SSE 00:15:30 44° WSW 00:20:34 10° NW
STARLINK-58 4.0 00:12:31 10° W 00:15:35 44° NNW 00:18:39 10° ENE
STARLINK-79 4.5 00:12:57 13° SSW 00:15:40 31° SE 00:18:55 10° ENE
STARLINK-1213 4.2 00:13:19 10° W 00:16:16 38° N 00:19:14 10° ENE
STARLINK-52 3.3 00:13:54 10° WNW 00:16:56 40° SW 00:19:58 10° SE
STARLINK-1263 4.2 00:14:13 10° W 00:17:10 38° N 00:20:07 10° ENE
STARLINK-78 4.4 00:14:31 13° SSW 00:17:18 32° SE 00:20:34 10° ENE
STARLINK-1304 3.6 00:14:04 11° WSW 00:17:59 87° SSE 00:22:09 10° ENE
Cosmos 2237 4.4 00:12:30 10° SSW 00:18:06 72° ESE 00:23:50 10° NNE
STARLINK-1259 4.3 00:15:09 10° W 00:18:06 38° N 00:21:04 10° ENE
STARLINK-1265 4.3 00:15:33 10° W 00:18:31 38° N 00:21:31 10° ENE
Cosmos 1408 2.6 00:15:11 11° SSW 00:18:44 79° W 00:22:26 10° N
STARLINK-1285 4.3 00:16:02 10° W 00:18:59 37° N 00:21:56 10° ENE
STARLINK-57 4.3 00:16:11 13° SSW 00:19:02 34° SE 00:22:21 10° ENE
STARLINK-49 4.3 00:17:39 12° SSW 00:20:33 33° SE 00:23:50 10° ENE
NOSS 2-1 (E) 3.7 00:17:39 11° WSW 00:20:44 48° NW 00:24:29 10° NE
STARLINK-1296 4.3 00:17:51 10° W 00:20:48 37° N 00:23:45 10° ENE
STARLINK-1260 4.3 00:18:45 10° W 00:21:42 37° N 00:24:39 10° ENE
STARLINK-27 4.3 00:19:13 12° SSW 00:22:10 34° SE 00:25:30 10° ENE
STARLINK-1371 3.7 00:18:28 10° WNW 00:22:26 74° NNE 00:26:24 10° ESE
STARLINK-1318 4.3 00:19:40 10° W 00:22:37 37° N 00:25:34 10° ENE
SL-08 R/B 3.2 00:18:12 10° S 00:22:48 70° WSW 00:27:26 10° NNW
IRS-P3 4.2 00:17:28 10° NNE 00:22:50 82° WNW 00:28:09 10° SSW
STARLINK-75 4.5 00:20:06 10° WNW 00:23:08 36° N 00:26:10 10° ENE
STARLINK-1275 4.3 00:20:35 10° W 00:23:31 37° N 00:26:29 10° ENE
STARLINK-48 4.0 00:19:49 10° W 00:23:40 59° NNW 00:27:32 10° ENE
STARLINK-1278 3.8 00:19:29 10° WSW 00:23:44 81° NNW 00:28:01 10° ENE
STARLINK-74 4.2 00:20:46 12° SSW 00:23:47 35° SE 00:27:08 10° ENE
Cosmos 1844 Rocket 2.7 00:18:19 10° NNW 00:23:58 89° WSW 00:29:33 10° SSE
STARLINK-1309 4.3 00:21:29 10° WNW 00:24:25 36° N 00:27:21 10° ENE
Cosmos 1825 2.2 00:21:05 10° S 00:24:50 81° E 00:28:37 10° NNE
STARLINK-1282 4.3 00:22:22 10° WNW 00:25:19 36° N 00:28:15 10° ENE
STARLINK-39 4.2 00:22:21 12° SSW 00:25:25 36° SE 00:28:47 10° ENE
STARLINK-1280 3.8 00:21:19 10° WSW 00:25:35 80° NNW 00:29:52 10° ENE
STARLINK-1313 4.4 00:23:32 10° WNW 00:26:27 35° N 00:29:24 10° ENE
STARLINK-80 4.5 00:23:01 10° W 00:26:41 44° N 00:30:21 10° ENE
STARLINK-1341 3.7 00:22:50 10° WNW 00:26:50 78° NNE 00:30:48 10° ESE
STARLINK-31 4.1 00:23:56 12° SSW 00:27:03 38° SE 00:30:27 10° ENE
STARLINK-1279 4.4 00:24:29 10° WNW 00:27:24 35° N 00:30:19 10° ENE
STARLINK-1298 4.4 00:25:04 10° WNW 00:27:59 36° N 00:30:56 10° ENE
SL-16 R/B 2.7 00:22:44 11° SW 00:28:08 50° NW 00:33:40 10° NNE
STARLINK-69 4.0 00:25:36 11° SW 00:28:46 41° SE 00:32:11 10° ENE
STARLINK-1293 4.4 00:26:00 10° WNW 00:28:56 36° N 00:31:52 10° ENE
CZ-2D R/B 3.3 00:25:44 10° N 00:30:10 29° WNW 00:34:35 10° WSW
STARLINK-21 4.0 00:27:07 11° SSW 00:30:21 40° SE 00:33:46 10° ENE
STARLINK-1255 4.4 00:27:49 10° WNW 00:30:45 36° N 00:33:41 10° ENE
STARLINK-1374 3.6 00:27:11 10° WNW 00:31:12 81° NNE 00:35:12 10° ESE
STARLINK-22 4.4 00:28:21 10° WNW 00:31:22 36° N 00:34:23 10° ENE
STARLINK-1297 4.4 00:28:29 10° W 00:31:57 42° N 00:35:25 10° ENE
STARLINK-45 3.9 00:28:46 11° SW 00:32:06 45° SE 00:35:34 10° ENE
STARLINK 1040 4.4 00:29:51 10° WNW 00:32:10 29° N 00:34:29 10° ENE
COSMOS 2428 4.2 00:27:39 10° SSE 00:32:35 32° ESE 00:37:32 10° NE
STARLINK-1311 4.4 00:30:38 10° WNW 00:33:21 32° N 00:36:05 10° ENE
STARLINK-1286 3.8 00:30:23 10° WSW 00:34:33 78° NNW 00:38:45 10° ENE
STARLINK-76 3.9 00:31:48 10° SW 00:35:12 44° SE 00:38:40 10° ENE
STARLINK-1339 3.6 00:31:27 10° WNW 00:35:27 85° NNE 00:39:25 10° ESE
STARLINK-70 3.9 00:32:01 10° SW 00:35:30 46° SE 00:39:02 10° ENE
Cosmos 2221 4.2 00:33:02 10° NW 00:36:04 19° W 00:39:05 10° SW
Cosmos 773 Rocket 4.1 00:31:26 10° SSW 00:36:42 87° ESE 00:42:02 10° NNE
STARLINK-23 3.9 00:33:21 10° SW 00:36:50 45° SE 00:40:19 10° ENE
STARLINK-1281 3.8 00:33:45 10° WSW 00:37:54 77° NNW 00:42:04 10° ENE
STARLINK-32 3.8 00:34:56 10° SW 00:38:23 46° SE 00:41:50 10° ENE
STARLINK-1377 3.6 00:35:51 10° WNW 00:39:53 89° NE 00:43:53 10° ESE
STARLINK-40 3.8 00:36:34 10° SW 00:40:04 47° SE 00:43:35 10° ENE
STARLINK-1051 4.4 00:36:25 10° SSW 00:40:19 40° SE 00:44:12 10° ENE
Cosmos 2366 rocket 4.1 00:34:49 10° S 00:41:05 89° E 00:47:27 10° N
CZ-4C R/B 3.3 00:37:54 10° SSE 00:41:33 78° ENE 00:45:11 10° N
STARLINK-44 3.8 00:38:08 10° SW 00:41:38 49° SE 00:45:10 10° ENE
BREEZE-M R/B 1.9 00:38:27 10° WNW 00:42:00 72° SSW 00:44:28 10° ESE
STARLINK-1310 3.8 00:38:45 10° WSW 00:42:54 73° NNW 00:47:03 10° ENE
STARLINK-37 3.6 00:39:55 10° SW 00:43:28 53° SSE 00:47:01 10° ENE
STARLINK-1029 4.2 00:40:49 10° W 00:43:49 39° N 00:46:51 10° ENE
STARLINK-1353 3.5 00:40:11 10° WNW 00:44:12 87° SSW 00:48:13 10° ESE
STARLINK-36 3.7 00:41:22 10° SW 00:44:53 51° SE 00:48:25 10° ENE
STARLINK-34 4.3 00:42:08 10° WNW 00:45:02 35° N 00:47:54 10° ENE
FALCON 9 DEB 3.6 00:42:06 10° WNW 00:45:21 39° SW 00:48:37 10° SE
Cosmos 2278 Rocket 4.1 00:40:19 10° NNW 00:45:35 37° NE 00:50:49 10° ESE
STARLINK-1319 3.9 00:43:44 10° WSW 00:47:52 69° NNW 00:52:01 10° ENE
STARLINK-63 3.6 00:44:43 10° SW 00:48:16 57° SSE 00:51:50 10° ENE
STARLINK-1375 3.5 00:44:33 10° WNW 00:48:35 82° SSW 00:52:35 10° ESE
STARLINK-62 4.4 00:46:02 10° WNW 00:48:53 34° N 00:51:44 10° ENE
STARLINK-35 3.6 00:46:12 10° SW 00:49:43 56° SSE 00:53:15 10° ENE
Cosmos 2360 Rocket 2.3 00:44:34 10° SW 00:50:11 71° WNW 00:55:51 10° NNE
STARLINK-1028 4.2 00:46:15 10° SW 00:50:14 46° SE 00:54:13 10° ENE
